UAE381 VHHH-OMDB

Flight info

Callsign UAE381
Flight time N/A
Altitude 36000
Route PECAN V10 SIKOU/K0913S1100 A202 ASSAD/K0909F360 A206 NALAO/N0491F360 A206 LPB B465 APAGO/N0493F380 B465 CEA A791 BPL L639 MILUP/N0485F400 L639 RASKI L301 RAGMA N571 VUSET A454 PASOV B540 KUPMA/N0394F240 B540 MIVEK P574 IMPED
Aircraft A388/J-SADE2E3FGHIJ3J4J5M1RWXY/LB1D1

Departure

Time N/A
Airport Hong Kong International Airport (VHHH)

Arrival

Time 2026-04-22 04:00
Airport Dubai International Airport (OMDB)
Time Latitude Longitude Altitude Speed Heading
2026-04-22 00:01 22.99725 83.64725 36598 ft 417 kts 268°
2026-04-22 00:02 22.99888 83.61604 37165 ft 413 kts 268°
2026-04-22 00:02 23.00049 83.58509 37666 ft 411 kts 268°
2026-04-22 00:02 23.00208 83.55392 37842 ft 413 kts 268°
2026-04-22 00:03 23.00523 83.49270 37847 ft 405 kts 267°
2026-04-22 00:03 23.00830 83.43146 37826 ft 407 kts 267°
2026-04-22 00:04 23.01139 83.37006 37825 ft 408 kts 267°
2026-04-22 00:04 23.01445 83.30905 37825 ft 407 kts 267°
2026-04-22 00:05 23.01750 83.24770 37816 ft 406 kts 267°
2026-04-22 00:05 23.02050 83.18651 37810 ft 406 kts 267°
2026-04-22 00:06 23.02349 83.12529 37788 ft 406 kts 267°
2026-04-22 00:06 23.02646 83.06402 37785 ft 407 kts 267°
2026-04-22 00:07 23.02940 83.00267 37792 ft 407 kts 267°
2026-04-22 00:07 23.03233 82.94121 37798 ft 408 kts 267°
2026-04-22 00:08 23.03524 82.87960 37803 ft 409 kts 267°
2026-04-22 00:08 23.03814 82.81795 37803 ft 409 kts 267°
2026-04-22 00:09 23.04100 82.75623 37802 ft 410 kts 267°
2026-04-22 00:09 23.04385 82.69449 37805 ft 410 kts 267°
2026-04-22 00:10 23.04668 82.63271 37801 ft 409 kts 267°
2026-04-22 00:10 23.04947 82.57100 37799 ft 409 kts 267°
2026-04-22 00:11 23.05225 82.50936 37800 ft 409 kts 267°
2026-04-22 00:11 23.05499 82.44775 37799 ft 409 kts 267°
2026-04-22 00:12 23.05771 82.38612 37809 ft 409 kts 267°
2026-04-22 00:12 23.06040 82.32450 37807 ft 408 kts 267°
2026-04-22 00:13 23.06306 82.26335 37802 ft 408 kts 267°
2026-04-22 00:13 23.06571 82.20186 37798 ft 407 kts 267°
2026-04-22 00:14 23.06848 82.14043 37797 ft 408 kts 268°
2026-04-22 00:14 23.07242 82.07893 37803 ft 408 kts 268°
2026-04-22 00:15 23.07639 82.01743 37805 ft 408 kts 268°
2026-04-22 00:15 23.08020 81.95594 37804 ft 408 kts 268°
2026-04-22 00:16 23.08394 81.89441 37806 ft 408 kts 268°
2026-04-22 00:16 23.08767 81.83288 37807 ft 408 kts 268°
2026-04-22 00:17 23.09137 81.77135 37812 ft 408 kts 268°
2026-04-22 00:17 23.09505 81.70978 37811 ft 408 kts 268°
2026-04-22 00:18 23.09870 81.64825 37821 ft 408 kts 268°
2026-04-22 00:18 23.10233 81.58671 37818 ft 408 kts 268°
2026-04-22 00:19 23.10593 81.52525 37820 ft 408 kts 268°
2026-04-22 00:19 23.10952 81.46374 37822 ft 408 kts 268°
2026-04-22 00:20 23.11306 81.40233 37819 ft 408 kts 268°
2026-04-22 00:20 23.11659 81.34086 37825 ft 408 kts 268°
2026-04-22 00:21 23.12010 81.27945 37816 ft 407 kts 268°
2026-04-22 00:21 23.12357 81.21806 37821 ft 408 kts 268°
2026-04-22 00:22 23.12703 81.15644 37827 ft 408 kts 268°
2026-04-22 00:22 23.13048 81.09484 37826 ft 409 kts 268°
2026-04-22 00:23 23.13390 81.03314 37833 ft 409 kts 268°
2026-04-22 00:23 23.13730 80.97144 37831 ft 409 kts 267°
2026-04-22 00:24 23.14067 80.90977 37834 ft 409 kts 267°
2026-04-22 00:24 23.14403 80.84805 37828 ft 410 kts 267°
2026-04-22 00:25 23.14736 80.78619 37829 ft 410 kts 267°
2026-04-22 00:25 23.15069 80.72464 37834 ft 411 kts 267°
2026-04-22 00:26 23.15410 80.66263 37826 ft 411 kts 268°
2026-04-22 00:26 23.15749 80.60058 37831 ft 411 kts 268°
2026-04-22 00:27 23.16084 80.53865 37825 ft 411 kts 268°
2026-04-22 00:27 23.16417 80.47652 37822 ft 412 kts 268°
2026-04-22 00:28 23.16748 80.41435 37824 ft 412 kts 267°
2026-04-22 00:28 23.17078 80.35204 37827 ft 413 kts 267°
2026-04-22 00:29 23.17405 80.28971 37835 ft 414 kts 267°
2026-04-22 00:29 23.17730 80.22724 37833 ft 414 kts 267°
2026-04-22 00:30 23.18053 80.16479 37852 ft 414 kts 267°
2026-04-22 00:30 23.18374 80.10226 37829 ft 415 kts 267°
2026-04-22 00:31 23.18690 80.03959 37823 ft 415 kts 267°
2026-04-22 00:31 23.18962 79.97696 37818 ft 415 kts 267°
2026-04-22 00:32 23.19183 79.92499 37816 ft 415 kts 267°
2026-04-22 00:32 23.19453 79.86227 37825 ft 415 kts 267°
2026-04-22 00:33 23.19722 79.79965 37840 ft 415 kts 267°
2026-04-22 00:33 23.19988 79.73695 37818 ft 416 kts 267°
2026-04-22 00:34 23.20252 79.67418 37825 ft 416 kts 267°
2026-04-22 00:34 23.20514 79.61130 37841 ft 417 kts 267°
2026-04-22 00:35 23.20765 79.54837 37836 ft 416 kts 266°
2026-04-22 00:35 23.20874 79.48549 37838 ft 416 kts 265°
2026-04-22 00:36 23.20967 79.42257 37831 ft 416 kts 265°
2026-04-22 00:36 23.21075 79.35955 37820 ft 418 kts 265°
2026-04-22 00:37 23.21186 79.29642 37824 ft 418 kts 265°
2026-04-22 00:37 23.21294 79.23310 37846 ft 419 kts 265°
2026-04-22 00:38 23.21400 79.16980 37829 ft 419 kts 265°
2026-04-22 00:38 23.21504 79.10643 37853 ft 419 kts 265°
2026-04-22 00:39 23.21605 79.04298 37829 ft 420 kts 265°
2026-04-22 00:39 23.21703 78.97942 37824 ft 421 kts 265°
2026-04-22 00:40 23.21799 78.91583 37832 ft 421 kts 265°
2026-04-22 00:40 23.21891 78.85249 37837 ft 422 kts 265°
2026-04-22 00:41 23.21983 78.78831 37854 ft 422 kts 265°
2026-04-22 00:41 23.22078 78.72493 37844 ft 422 kts 266°
2026-04-22 00:42 23.22386 78.66097 37827 ft 424 kts 268°
2026-04-22 00:42 23.22736 78.59688 37826 ft 425 kts 268°
2026-04-22 00:43 23.23054 78.53273 37833 ft 425 kts 267°
2026-04-22 00:43 23.23361 78.46844 37841 ft 426 kts 267°
2026-04-22 00:44 23.23665 78.40414 37847 ft 426 kts 267°
2026-04-22 00:44 23.23966 78.33981 37853 ft 426 kts 267°
2026-04-22 00:45 23.24265 78.27545 37839 ft 426 kts 267°
2026-04-22 00:45 23.24561 78.21107 37844 ft 426 kts 267°
2026-04-22 00:46 23.24855 78.14668 37848 ft 426 kts 267°
2026-04-22 00:46 23.25146 78.08236 37855 ft 426 kts 267°
2026-04-22 00:47 23.25435 78.01805 37852 ft 426 kts 267°
2026-04-22 00:47 23.25719 77.95381 37846 ft 425 kts 267°
2026-04-22 00:48 23.26002 77.88942 37840 ft 426 kts 267°
2026-04-22 00:48 23.26282 77.82498 37843 ft 427 kts 267°
2026-04-22 00:49 23.26560 77.76047 37863 ft 427 kts 267°
2026-04-22 00:49 23.26836 77.69575 37843 ft 430 kts 268°
2026-04-22 00:50 23.27112 77.63078 37857 ft 431 kts 268°
2026-04-22 00:50 23.27385 77.56559 37840 ft 433 kts 268°
2026-04-22 00:51 23.27657 77.50005 37865 ft 435 kts 268°
2026-04-22 00:51 23.27929 77.43410 37883 ft 436 kts 268°
2026-04-22 00:52 23.28198 77.36813 37889 ft 437 kts 268°
2026-04-22 00:52 23.28096 77.30237 37889 ft 433 kts 261°
2026-04-22 00:53 23.27615 77.23712 37887 ft 433 kts 262°
2026-04-22 00:53 23.27156 77.17157 37864 ft 435 kts 262°
2026-04-22 00:54 23.26691 77.10592 37873 ft 436 kts 262°
2026-04-22 00:54 23.26223 77.04060 37880 ft 437 kts 262°
2026-04-22 00:55 23.25749 76.97480 37889 ft 437 kts 262°
2026-04-22 00:55 23.25030 76.87591 37892 ft 437 kts 262°
2026-04-22 00:56 23.24546 76.80987 37867 ft 439 kts 262°
2026-04-22 00:56 23.24058 76.74357 37881 ft 441 kts 262°
2026-04-22 00:57 23.23566 76.67696 37891 ft 442 kts 262°
2026-04-22 00:57 23.23070 76.61030 37898 ft 443 kts 262°
2026-04-22 00:58 23.22570 76.54362 37906 ft 443 kts 262°
2026-04-22 00:58 23.22068 76.47700 37880 ft 444 kts 262°
2026-04-22 00:59 23.21559 76.40982 37888 ft 446 kts 262°
2026-04-22 00:59 23.21047 76.34258 37904 ft 447 kts 262°
2026-04-22 01:00 23.20532 76.27526 37909 ft 447 kts 262°
2026-04-22 01:00 23.20013 76.20787 37927 ft 448 kts 262°
2026-04-22 01:01 23.19490 76.14042 37924 ft 448 kts 262°
2026-04-22 01:01 23.18963 76.07281 37898 ft 449 kts 262°
2026-04-22 01:02 23.18436 76.00507 37911 ft 450 kts 263°
2026-04-22 01:02 23.18307 75.93687 37917 ft 452 kts 266°
2026-04-22 01:03 23.18234 75.86851 37916 ft 453 kts 266°
2026-04-22 01:03 23.18151 75.80005 37930 ft 453 kts 266°
2026-04-22 01:04 23.18064 75.73155 37911 ft 454 kts 266°
2026-04-22 01:04 23.17974 75.66289 37912 ft 455 kts 266°
2026-04-22 01:05 23.17882 75.59410 37920 ft 455 kts 266°
2026-04-22 01:05 23.17786 75.52526 37921 ft 456 kts 266°
2026-04-22 01:06 23.17687 75.45678 37918 ft 456 kts 266°
2026-04-22 01:06 23.17585 75.38787 37898 ft 457 kts 266°
2026-04-22 01:07 23.17479 75.31870 37901 ft 458 kts 266°
2026-04-22 01:07 23.17371 75.24944 37908 ft 459 kts 266°
2026-04-22 01:08 23.17259 75.17986 37912 ft 460 kts 266°
2026-04-22 01:08 23.17144 75.11035 37920 ft 460 kts 266°
2026-04-22 01:09 23.17026 75.04080 37879 ft 461 kts 266°
2026-04-22 01:09 23.16904 74.97104 37891 ft 462 kts 266°
2026-04-22 01:10 23.16779 74.90110 37900 ft 463 kts 266°
2026-04-22 01:10 23.16651 74.83105 37906 ft 464 kts 266°
2026-04-22 01:11 23.16520 74.76101 37901 ft 464 kts 266°
2026-04-22 01:11 23.16385 74.69091 37901 ft 464 kts 266°
2026-04-22 01:12 23.16248 74.62089 37891 ft 463 kts 266°
2026-04-22 01:12 23.16107 74.55087 37894 ft 463 kts 266°
2026-04-22 01:13 23.15963 74.48091 37883 ft 463 kts 266°
2026-04-22 01:13 23.15816 74.41096 37878 ft 463 kts 266°
2026-04-22 01:14 23.15667 74.34105 37858 ft 463 kts 266°
2026-04-22 01:14 23.15388 74.27121 37856 ft 463 kts 264°
2026-04-22 01:15 23.15028 74.20117 37861 ft 464 kts 264°
2026-04-22 01:15 23.14688 74.13102 37869 ft 465 kts 265°
2026-04-22 01:16 23.14353 74.06076 37868 ft 466 kts 265°
2026-04-22 01:16 23.14073 74.00230 37868 ft 466 kts 265°
2026-04-22 01:17 23.13732 73.93181 37856 ft 468 kts 265°
2026-04-22 01:17 23.13331 73.84960 37860 ft 469 kts 265°
2026-04-22 01:18 23.12982 73.77879 37861 ft 470 kts 265°
2026-04-22 01:18 23.12687 73.71940 37863 ft 470 kts 265°
2026-04-22 01:19 23.12332 73.64849 37858 ft 470 kts 265°
2026-04-22 01:19 23.11974 73.57762 37847 ft 470 kts 265°
2026-04-22 01:20 23.11611 73.50658 37846 ft 471 kts 265°
2026-04-22 01:20 23.11246 73.43562 37851 ft 470 kts 265°
2026-04-22 01:21 23.10878 73.36468 37845 ft 470 kts 265°
2026-04-22 01:21 23.10506 73.29375 37850 ft 470 kts 265°
2026-04-22 01:22 23.10133 73.22321 37837 ft 471 kts 265°
2026-04-22 01:22 23.09754 73.15203 37841 ft 472 kts 265°
2026-04-22 01:23 23.09372 73.08082 37846 ft 473 kts 265°
2026-04-22 01:23 23.08986 73.00955 37847 ft 473 kts 265°
2026-04-22 01:24 23.08596 72.93818 37841 ft 474 kts 265°
2026-04-22 01:24 23.08202 72.86665 37828 ft 475 kts 265°
2026-04-22 01:25 23.07804 72.79500 37833 ft 476 kts 265°
2026-04-22 01:25 23.07402 72.72315 37837 ft 477 kts 265°
2026-04-22 01:26 23.06997 72.65130 37839 ft 477 kts 265°
2026-04-22 01:26 23.06185 72.57994 37819 ft 477 kts 260°
2026-04-22 01:27 23.05185 72.50876 37828 ft 478 kts 260°
2026-04-22 01:27 23.04192 72.43740 37837 ft 478 kts 260°
2026-04-22 01:28 23.03189 72.36598 37845 ft 479 kts 260°
2026-04-22 01:28 23.02182 72.29456 37854 ft 479 kts 260°
2026-04-22 01:29 23.01170 72.22311 37847 ft 479 kts 260°
2026-04-22 01:29 23.00154 72.15153 37853 ft 480 kts 260°
2026-04-22 01:30 22.99135 72.07999 37860 ft 480 kts 260°
2026-04-22 01:30 22.98112 72.00843 37861 ft 480 kts 260°
2026-04-22 01:31 22.97085 71.93684 37861 ft 480 kts 260°
2026-04-22 01:31 22.96055 71.86526 37855 ft 480 kts 260°
2026-04-22 01:32 22.95021 71.79364 37860 ft 480 kts 260°
2026-04-22 01:32 22.93984 71.72203 37860 ft 481 kts 260°
2026-04-22 01:33 22.92943 71.65042 37867 ft 481 kts 260°
2026-04-22 01:33 22.91899 71.57880 37867 ft 481 kts 260°
2026-04-22 01:34 22.90851 71.50717 37869 ft 481 kts 260°
2026-04-22 01:34 22.89807 71.43600 37871 ft 481 kts 260°
2026-04-22 01:35 22.88745 71.36385 37872 ft 481 kts 260°
2026-04-22 01:35 22.87687 71.29216 37874 ft 481 kts 260°
2026-04-22 01:36 22.86625 71.22047 37871 ft 481 kts 260°
2026-04-22 01:36 22.85560 71.14881 37883 ft 481 kts 260°
2026-04-22 01:37 22.84500 71.07768 37882 ft 481 kts 260°
2026-04-22 01:37 22.83428 71.00603 37887 ft 481 kts 260°
2026-04-22 01:38 22.82354 70.93445 37888 ft 481 kts 260°
2026-04-22 01:38 22.81306 70.86292 37881 ft 481 kts 263°
2026-04-22 01:39 22.81094 70.79040 37878 ft 483 kts 272°
2026-04-22 01:39 22.81581 70.71780 37880 ft 483 kts 273°
2026-04-22 01:40 22.82039 70.64513 37883 ft 484 kts 273°
2026-04-22 01:40 22.82495 70.57236 37888 ft 484 kts 273°
2026-04-22 01:41 22.82949 70.49953 37887 ft 484 kts 273°
2026-04-22 01:41 22.83402 70.42679 37909 ft 483 kts 273°
2026-04-22 01:42 22.83850 70.35414 37895 ft 482 kts 273°
2026-04-22 01:42 22.84293 70.28164 37890 ft 482 kts 273°
2026-04-22 01:43 22.84732 70.20930 37885 ft 481 kts 273°
2026-04-22 01:43 22.85167 70.13715 37887 ft 480 kts 273°
2026-04-22 01:44 22.85599 70.06495 37882 ft 479 kts 273°
2026-04-22 01:44 22.86027 69.99291 37877 ft 479 kts 273°
2026-04-22 01:45 22.86451 69.92095 37875 ft 478 kts 273°
2026-04-22 01:45 22.86871 69.84899 37874 ft 478 kts 273°
2026-04-22 01:46 22.87285 69.77765 37874 ft 477 kts 273°
2026-04-22 01:46 22.87699 69.70581 37870 ft 477 kts 273°
2026-04-22 01:47 22.88146 69.63406 37869 ft 477 kts 274°
2026-04-22 01:47 22.88619 69.56232 37871 ft 477 kts 274°
2026-04-22 01:48 22.89082 69.49052 37873 ft 478 kts 274°
2026-04-22 01:48 22.89538 69.41864 37877 ft 478 kts 274°
2026-04-22 01:49 22.89992 69.34669 37879 ft 478 kts 274°
2026-04-22 01:49 22.90443 69.27464 37880 ft 479 kts 274°
2026-04-22 01:50 22.90890 69.20258 37885 ft 479 kts 274°
2026-04-22 01:50 22.91334 69.13061 37900 ft 478 kts 274°
2026-04-22 01:51 22.91774 69.05874 37886 ft 477 kts 273°
2026-04-22 01:51 22.92210 68.98699 37890 ft 476 kts 273°
2026-04-22 01:52 22.92643 68.91526 37876 ft 476 kts 273°
2026-04-22 01:52 22.93071 68.84365 37879 ft 475 kts 273°
2026-04-22 01:53 22.93496 68.77213 37879 ft 475 kts 273°
2026-04-22 01:53 22.93917 68.70073 37872 ft 474 kts 273°
2026-04-22 01:54 22.94335 68.62934 37873 ft 474 kts 273°
2026-04-22 01:54 22.94745 68.55858 37869 ft 474 kts 273°
2026-04-22 01:55 22.95159 68.48667 37878 ft 473 kts 273°
2026-04-22 01:55 22.95567 68.41541 37865 ft 473 kts 273°
2026-04-22 01:56 22.95783 68.34413 37872 ft 473 kts 270°
2026-04-22 01:56 22.95782 68.27269 37861 ft 473 kts 270°
2026-04-22 01:57 22.95794 68.20128 37877 ft 474 kts 270°
2026-04-22 01:57 22.95798 68.12978 37877 ft 474 kts 270°
2026-04-22 01:58 22.95797 68.05868 37879 ft 474 kts 270°
2026-04-22 01:58 22.95793 67.98721 37880 ft 474 kts 270°
2026-04-22 01:59 22.95785 67.91567 37878 ft 474 kts 270°
2026-04-22 01:59 22.95777 67.84407 37876 ft 474 kts 270°
2026-04-22 02:00 22.95798 67.77259 37881 ft 474 kts 270°
2026-04-22 02:00 22.95817 67.70110 37881 ft 474 kts 270°
2026-04-22 02:01 22.95829 67.62963 37873 ft 474 kts 270°
2026-04-22 02:01 22.95837 67.55821 37873 ft 474 kts 270°
2026-04-22 02:02 22.95842 67.48678 37879 ft 473 kts 270°
2026-04-22 02:02 22.95843 67.41539 37872 ft 473 kts 270°
2026-04-22 02:03 22.95842 67.35611 37874 ft 472 kts 270°
2026-04-22 02:03 22.95838 67.28441 37872 ft 472 kts 270°
2026-04-22 02:04 22.95825 67.17802 37877 ft 472 kts 270°
2026-04-22 02:05 22.95813 67.10689 37876 ft 471 kts 270°
2026-04-22 02:05 22.95798 67.03577 37887 ft 471 kts 270°
2026-04-22 02:06 22.95779 66.96476 37880 ft 471 kts 270°
2026-04-22 02:06 22.95804 66.89378 37877 ft 470 kts 270°
2026-04-22 02:07 22.95860 66.82295 37883 ft 469 kts 270°
2026-04-22 02:07 22.95905 66.75218 37878 ft 469 kts 270°
2026-04-22 02:08 22.95942 66.68143 37872 ft 469 kts 270°
2026-04-22 02:08 22.95975 66.61072 37870 ft 468 kts 270°
2026-04-22 02:09 22.96005 66.54008 37877 ft 468 kts 270°
2026-04-22 02:09 22.96032 66.46956 37873 ft 468 kts 270°
2026-04-22 02:10 22.96056 66.39899 37873 ft 467 kts 270°
2026-04-22 02:10 22.96076 66.32851 37872 ft 467 kts 270°
2026-04-22 02:11 22.96094 66.25800 37874 ft 467 kts 270°
2026-04-22 02:11 22.96108 66.18755 37878 ft 467 kts 270°
2026-04-22 02:12 22.96119 66.11697 37878 ft 467 kts 270°
2026-04-22 02:12 22.96127 66.04649 37880 ft 467 kts 270°
2026-04-22 02:13 22.96132 65.97598 37883 ft 468 kts 270°
2026-04-22 02:13 22.96134 65.90536 37885 ft 468 kts 270°
2026-04-22 02:14 22.96133 65.83526 37882 ft 468 kts 270°
2026-04-22 02:14 22.96129 65.76480 37882 ft 467 kts 270°
2026-04-22 02:15 22.96121 65.69426 37882 ft 467 kts 270°
2026-04-22 02:15 22.96111 65.62373 37881 ft 467 kts 270°
2026-04-22 02:16 22.96097 65.55321 37879 ft 467 kts 270°
2026-04-22 02:16 22.96080 65.48274 37878 ft 467 kts 270°
2026-04-22 02:17 22.96060 65.41221 37876 ft 467 kts 270°
2026-04-22 02:17 22.96037 65.34176 37877 ft 467 kts 270°
2026-04-22 02:18 22.96011 65.27128 37871 ft 467 kts 270°
2026-04-22 02:18 22.95982 65.20070 37879 ft 468 kts 270°
2026-04-22 02:19 22.95949 65.13009 37875 ft 468 kts 270°
2026-04-22 02:19 22.95914 65.05940 37884 ft 468 kts 270°
2026-04-22 02:20 22.95875 64.98877 37885 ft 469 kts 270°
2026-04-22 02:20 22.95833 64.91801 37882 ft 469 kts 270°
2026-04-22 02:21 22.95795 64.84724 37880 ft 469 kts 271°
2026-04-22 02:21 22.96376 64.77685 37879 ft 469 kts 277°
2026-04-22 02:22 22.97135 64.70662 37884 ft 469 kts 276°
2026-04-22 02:22 22.97873 64.63685 37886 ft 469 kts 276°
2026-04-22 02:23 22.98616 64.56645 37883 ft 469 kts 276°
2026-04-22 02:23 22.99355 64.49616 37884 ft 469 kts 276°
2026-04-22 02:24 23.00092 64.42581 37883 ft 469 kts 276°
2026-04-22 02:24 23.00825 64.35550 37878 ft 469 kts 276°
2026-04-22 02:25 23.01556 64.28514 37882 ft 469 kts 276°
2026-04-22 02:25 23.02282 64.21487 37880 ft 468 kts 276°
2026-04-22 02:26 23.03006 64.14458 37884 ft 468 kts 276°
2026-04-22 02:26 23.03726 64.07433 37881 ft 468 kts 276°
2026-04-22 02:27 23.04442 64.00409 37883 ft 468 kts 276°
2026-04-22 02:27 23.05155 63.93392 37880 ft 468 kts 276°
2026-04-22 02:28 23.05864 63.86380 37878 ft 467 kts 276°
2026-04-22 02:28 23.06590 63.79368 37877 ft 467 kts 276°
2026-04-22 02:29 23.07327 63.72355 37869 ft 467 kts 276°
2026-04-22 02:29 23.08057 63.65351 37874 ft 467 kts 276°
2026-04-22 02:30 23.08783 63.58331 37876 ft 467 kts 276°
2026-04-22 02:30 23.09505 63.51315 37879 ft 468 kts 276°
2026-04-22 02:31 23.10224 63.44295 37875 ft 468 kts 276°
2026-04-22 02:31 23.10941 63.37265 37872 ft 468 kts 276°
2026-04-22 02:32 23.11655 63.30229 37873 ft 469 kts 276°
2026-04-22 02:32 23.12366 63.23193 37874 ft 469 kts 276°
2026-04-22 02:33 23.13074 63.16151 37880 ft 469 kts 276°
2026-04-22 02:33 23.13780 63.09106 37876 ft 469 kts 276°
2026-04-22 02:34 23.14483 63.02057 37877 ft 469 kts 276°
2026-04-22 02:34 23.15182 62.95012 37880 ft 470 kts 276°
2026-04-22 02:35 23.15880 62.87949 37880 ft 470 kts 276°
2026-04-22 02:35 23.16569 62.80937 37879 ft 470 kts 276°
2026-04-22 02:36 23.17265 62.73831 37878 ft 470 kts 276°
2026-04-22 02:36 23.17948 62.66824 37876 ft 469 kts 276°
2026-04-22 02:37 23.18636 62.59725 37870 ft 469 kts 276°
2026-04-22 02:37 23.19312 62.52722 37869 ft 469 kts 276°
2026-04-22 02:38 23.19988 62.45676 37868 ft 469 kts 276°
2026-04-22 02:38 23.20662 62.38632 37865 ft 468 kts 276°
2026-04-22 02:39 23.21333 62.31589 37863 ft 468 kts 276°
2026-04-22 02:39 23.21999 62.24546 37857 ft 468 kts 276°
2026-04-22 02:40 23.22662 62.17507 37855 ft 468 kts 276°
2026-04-22 02:40 23.23324 62.10460 37859 ft 469 kts 276°
2026-04-22 02:41 23.23982 62.03409 37857 ft 469 kts 276°
2026-04-22 02:41 23.24637 61.96353 37866 ft 469 kts 276°
2026-04-22 02:42 23.25290 61.89286 37859 ft 470 kts 276°
2026-04-22 02:42 23.25940 61.82220 37866 ft 470 kts 276°
2026-04-22 02:43 23.26588 61.75145 37859 ft 470 kts 276°
2026-04-22 02:43 23.27231 61.68075 37862 ft 470 kts 276°
2026-04-22 02:44 23.27872 61.61007 37865 ft 470 kts 276°
2026-04-22 02:44 23.28509 61.53939 37858 ft 469 kts 276°
2026-04-22 02:45 23.29143 61.46872 37859 ft 469 kts 276°
2026-04-22 02:45 23.29773 61.39809 37848 ft 469 kts 276°
2026-04-22 02:46 23.30400 61.32741 37844 ft 469 kts 276°
2026-04-22 02:46 23.31023 61.25687 37856 ft 469 kts 277°
2026-04-22 02:47 23.31645 61.18635 37850 ft 468 kts 277°
2026-04-22 02:47 23.32445 61.11611 37843 ft 468 kts 279°
2026-04-22 02:48 23.33379 61.04612 37839 ft 467 kts 279°
2026-04-22 02:48 23.34124 60.98795 37862 ft 467 kts 279°
2026-04-22 02:49 23.35007 60.91755 37843 ft 466 kts 279°
2026-04-22 02:49 23.35877 60.84756 37840 ft 466 kts 279°
2026-04-22 02:50 23.36737 60.77814 37834 ft 466 kts 279°
2026-04-22 02:50 23.37604 60.70786 37864 ft 465 kts 279°
2026-04-22 02:51 23.38852 60.63909 37845 ft 462 kts 287°
2026-04-22 02:51 23.41034 60.57340 37848 ft 461 kts 292°
2026-04-22 02:52 23.43412 60.50860 37839 ft 461 kts 292°
2026-04-22 02:52 23.45772 60.44382 37839 ft 460 kts 292°
2026-04-22 02:53 23.48115 60.37956 37839 ft 459 kts 292°
2026-04-22 02:53 23.50468 60.31497 37836 ft 459 kts 292°
2026-04-22 02:54 23.52819 60.25037 37828 ft 458 kts 292°
2026-04-22 02:54 23.55163 60.18581 37829 ft 458 kts 292°
2026-04-22 02:55 23.57501 60.12136 37823 ft 457 kts 292°
2026-04-22 02:55 23.59832 60.05699 37821 ft 456 kts 292°
2026-04-22 02:56 23.62162 59.99258 37823 ft 456 kts 292°
2026-04-22 02:56 23.64485 59.92824 37822 ft 456 kts 292°
2026-04-22 02:57 23.66803 59.86395 37857 ft 455 kts 291°
2026-04-22 02:57 23.69112 59.79980 37847 ft 454 kts 291°
2026-04-22 02:58 23.71416 59.73572 37841 ft 453 kts 291°
2026-04-22 02:58 23.73714 59.67167 37836 ft 453 kts 291°
2026-04-22 02:59 23.76007 59.60770 37830 ft 452 kts 291°
2026-04-22 02:59 23.78292 59.54386 37831 ft 451 kts 291°
2026-04-22 03:00 23.80570 59.48009 37831 ft 450 kts 291°
2026-04-22 03:00 23.82838 59.41651 37831 ft 450 kts 291°
2026-04-22 03:01 23.85111 59.35272 37821 ft 450 kts 291°
2026-04-22 03:01 23.87377 59.28903 37836 ft 449 kts 291°
2026-04-22 03:02 23.89636 59.22544 37830 ft 449 kts 291°
2026-04-22 03:02 23.91889 59.16191 37826 ft 448 kts 291°
2026-04-22 03:03 23.94086 59.09817 37822 ft 448 kts 289°
2026-04-22 03:03 23.96103 59.03424 37818 ft 448 kts 289°
2026-04-22 03:04 23.98153 58.96959 37824 ft 447 kts 289°
2026-04-22 03:04 24.00203 58.90548 37820 ft 447 kts 289°
2026-04-22 03:05 24.02254 58.84136 37828 ft 447 kts 289°
2026-04-22 03:05 24.04288 58.77767 37825 ft 446 kts 289°
2026-04-22 03:06 24.06331 58.71358 37823 ft 446 kts 289°
2026-04-22 03:06 24.08371 58.64948 37822 ft 446 kts 289°
2026-04-22 03:07 24.10405 58.58545 37819 ft 446 kts 289°
2026-04-22 03:07 24.12437 58.52138 37820 ft 446 kts 289°
2026-04-22 03:08 24.14468 58.45725 37837 ft 445 kts 289°
2026-04-22 03:08 24.16492 58.39322 37850 ft 445 kts 289°
2026-04-22 03:09 24.18514 58.32918 37834 ft 445 kts 289°
2026-04-22 03:09 24.20533 58.26512 37832 ft 445 kts 289°
2026-04-22 03:10 24.22546 58.20112 37831 ft 444 kts 289°
2026-04-22 03:10 24.24554 58.13718 37846 ft 443 kts 289°
2026-04-22 03:11 24.26555 58.07335 37840 ft 443 kts 289°
2026-04-22 03:11 24.28551 58.00960 37838 ft 442 kts 289°
2026-04-22 03:12 24.30542 57.94590 37832 ft 442 kts 289°
2026-04-22 03:12 24.33517 57.85053 37847 ft 440 kts 289°
2026-04-22 03:13 24.35494 57.78699 37838 ft 440 kts 289°
2026-04-22 03:13 24.37465 57.72355 37833 ft 439 kts 289°
2026-04-22 03:14 24.39429 57.66025 37838 ft 438 kts 289°
2026-04-22 03:14 24.41390 57.59694 37832 ft 438 kts 289°
2026-04-22 03:15 24.43345 57.53372 37817 ft 437 kts 289°
2026-04-22 03:15 24.45296 57.47052 37828 ft 437 kts 289°
2026-04-22 03:16 24.47242 57.40739 37831 ft 437 kts 289°
2026-04-22 03:16 24.48212 57.37588 37653 ft 434 kts 289°
2026-04-22 03:16 24.49172 57.34466 37384 ft 430 kts 289°
2026-04-22 03:17 24.50118 57.31387 37120 ft 432 kts 289°
2026-04-22 03:17 24.51082 57.28251 36840 ft 435 kts 289°
2026-04-22 03:17 24.52053 57.25089 36124 ft 439 kts 288°
2026-04-22 03:17 24.53039 57.21873 34858 ft 451 kts 288°
2026-04-22 03:18 24.54059 57.18545 33172 ft 470 kts 288°
2026-04-22 03:18 24.55118 57.15081 31704 ft 483 kts 287°
2026-04-22 03:18 24.56182 57.11603 31074 ft 476 kts 287°
2026-04-22 03:18 24.57218 57.08215 30802 ft 461 kts 287°
2026-04-22 03:19 24.58233 57.04892 29927 ft 460 kts 287°
2026-04-22 03:19 24.59249 57.01555 29004 ft 460 kts 287°
2026-04-22 03:19 24.60259 56.98239 28305 ft 454 kts 287°
2026-04-22 03:19 24.61253 56.94972 27599 ft 449 kts 288°
2026-04-22 03:20 24.62235 56.91742 26972 ft 442 kts 287°
2026-04-22 03:20 24.63204 56.88555 26282 ft 437 kts 288°
2026-04-22 03:20 24.64207 56.85419 25573 ft 434 kts 291°
2026-04-22 03:20 24.65524 56.82450 24925 ft 430 kts 298°
2026-04-22 03:21 24.67073 56.79663 24259 ft 426 kts 300°
2026-04-22 03:21 24.68615 56.76892 23585 ft 423 kts 300°
2026-04-22 03:21 24.70129 56.74147 22955 ft 417 kts 300°
2026-04-22 03:21 24.71611 56.71456 22418 ft 408 kts 300°
2026-04-22 03:22 24.73067 56.68811 21875 ft 401 kts 300°
2026-04-22 03:22 24.74502 56.66204 21310 ft 395 kts 300°
2026-04-22 03:22 24.75917 56.63633 20760 ft 391 kts 300°
2026-04-22 03:22 24.77313 56.61097 20236 ft 386 kts 300°
2026-04-22 03:23 24.78700 56.58575 19733 ft 382 kts 300°
2026-04-22 03:23 24.80064 56.56096 19231 ft 378 kts 300°
2026-04-22 03:23 24.81427 56.53617 18686 ft 376 kts 300°
2026-04-22 03:23 24.82774 56.51163 18189 ft 373 kts 300°
2026-04-22 03:24 24.84111 56.48727 17648 ft 370 kts 300°
2026-04-22 03:24 24.85433 56.46320 17128 ft 366 kts 300°
2026-04-22 03:24 24.86740 56.43938 16604 ft 362 kts 300°
2026-04-22 03:24 24.87838 56.41474 16091 ft 356 kts 288°
2026-04-22 03:25 24.88376 56.38835 15588 ft 352 kts 275°
2026-04-22 03:25 24.88368 56.36163 15090 ft 347 kts 266°
2026-04-22 03:25 24.88205 56.33556 14603 ft 344 kts 266°
2026-04-22 03:25 24.88060 56.30903 14107 ft 341 kts 266°
2026-04-22 03:26 24.87931 56.28313 13630 ft 337 kts 269°
2026-04-22 03:26 24.88142 56.25762 13139 ft 333 kts 282°
2026-04-22 03:26 24.88869 56.23365 12743 ft 330 kts 294°
2026-04-22 03:26 24.89990 56.21153 12404 ft 340 kts 298°
2026-04-22 03:27 24.91172 56.18885 11968 ft 342 kts 298°
2026-04-22 03:27 24.92335 56.16623 11708 ft 337 kts 298°
2026-04-22 03:27 24.93486 56.14378 11508 ft 337 kts 298°
2026-04-22 03:27 24.94637 56.12131 11292 ft 335 kts 297°
2026-04-22 03:28 24.95784 56.09894 11075 ft 333 kts 297°
2026-04-22 03:28 24.96915 56.07720 10975 ft 321 kts 300°
2026-04-22 03:28 24.98211 56.05769 10856 ft 310 kts 308°
2026-04-22 03:28 24.99640 56.04054 10745 ft 297 kts 310°
2026-04-22 03:29 25.00964 56.02358 10312 ft 291 kts 300°
2026-04-22 03:29 25.01651 56.00292 9868 ft 288 kts 275°
2026-04-22 03:29 25.01557 55.98103 9406 ft 286 kts 261°
2026-04-22 03:29 25.01264 55.95939 8997 ft 284 kts 261°
2026-04-22 03:30 25.00974 55.93792 8576 ft 283 kts 261°
2026-04-22 03:30 25.00712 55.91638 8139 ft 282 kts 261°
2026-04-22 03:30 25.00472 55.89490 7668 ft 284 kts 262°
2026-04-22 03:30 25.00243 55.87337 7260 ft 282 kts 262°
2026-04-22 03:31 25.00019 55.85186 6866 ft 281 kts 261°
2026-04-22 03:31 24.99917 55.83038 6358 ft 285 kts 274°
2026-04-22 03:31 25.00483 55.80938 5948 ft 289 kts 295°
2026-04-22 03:31 25.01541 55.79046 5457 ft 292 kts 300°
2026-04-22 03:32 25.02613 55.77160 5107 ft 289 kts 300°
2026-04-22 03:32 25.03666 55.75282 4705 ft 288 kts 300°
2026-04-22 03:32 25.04721 55.73396 4293 ft 288 kts 300°
2026-04-22 03:32 25.05770 55.71521 3902 ft 287 kts 299°
2026-04-22 03:33 25.06805 55.69668 3698 ft 279 kts 299°
2026-04-22 03:33 25.07471 55.68477 3629 ft 271 kts 299°
2026-04-22 03:33 25.08443 55.66735 3515 ft 262 kts 300°
2026-04-22 03:33 25.09380 55.65053 3432 ft 253 kts 300°
2026-04-22 03:34 25.10279 55.63441 3374 ft 240 kts 300°
2026-04-22 03:34 25.11136 55.61903 3273 ft 231 kts 300°
2026-04-22 03:34 25.11941 55.60458 3148 ft 209 kts 300°
2026-04-22 03:34 25.12691 55.59111 2659 ft 206 kts 300°
2026-04-22 03:35 25.13450 55.57769 2189 ft 205 kts 303°
2026-04-22 03:35 25.14229 55.56461 2000 ft 204 kts 303°
2026-04-22 03:35 25.14979 55.55133 1972 ft 205 kts 301°
2026-04-22 03:35 25.15717 55.53793 1977 ft 200 kts 302°
2026-04-22 03:36 25.16423 55.52514 1970 ft 193 kts 301°
2026-04-22 03:36 25.17109 55.51266 1968 ft 188 kts 302°
2026-04-22 03:36 25.17792 55.50029 1971 ft 188 kts 302°
2026-04-22 03:36 25.18469 55.48796 1926 ft 185 kts 302°
2026-04-22 03:37 25.19103 55.47649 1673 ft 170 kts 303°
2026-04-22 03:37 25.19703 55.46558 1454 ft 162 kts 302°
2026-04-22 03:37 25.20281 55.45503 1250 ft 159 kts 302°
2026-04-22 03:37 25.20853 55.44476 1044 ft 152 kts 303°
2026-04-22 03:38 25.21390 55.43496 864 ft 146 kts 303°
2026-04-22 03:38 25.21918 55.42548 676 ft 143 kts 304°
2026-04-22 03:38 25.22413 55.41631 506 ft 137 kts 303°
2026-04-22 03:38 25.22925 55.40718 332 ft 141 kts 303°
2026-04-22 03:39 25.23428 55.39794 143 ft 138 kts 302°
2026-04-22 03:39 25.23915 55.38890 36 ft 128 kts 302°
2026-04-22 03:39 25.24417 55.38036 158 ft 154 kts 302°
2026-04-22 03:39 25.25021 55.36930 628 ft 177 kts 302°
2026-04-22 03:40 25.25653 55.35772 1550 ft 177 kts 303°
2026-04-22 03:40 25.26313 55.34581 2269 ft 189 kts 303°
2026-04-22 03:40 25.27017 55.33263 2552 ft 209 kts 296°
2026-04-22 03:40 25.27502 55.31689 2779 ft 222 kts 283°
2026-04-22 03:41 25.27853 55.30018 2957 ft 225 kts 281°
2026-04-22 03:41 25.28212 55.28330 2976 ft 226 kts 282°
2026-04-22 03:41 25.28602 55.26657 2978 ft 226 kts 284°
2026-04-22 03:41 25.29021 55.24992 2979 ft 223 kts 285°
2026-04-22 03:42 25.29451 55.23351 2984 ft 224 kts 286°
2026-04-22 03:42 25.29893 55.21700 2981 ft 224 kts 286°
2026-04-22 03:42 25.30337 55.20043 2979 ft 225 kts 285°
2026-04-22 03:42 25.30781 55.18387 2981 ft 224 kts 285°
2026-04-22 03:43 25.31220 55.16741 2980 ft 224 kts 286°
2026-04-22 03:43 25.31658 55.15098 2980 ft 222 kts 285°
2026-04-22 03:43 25.32092 55.13476 2981 ft 217 kts 285°
2026-04-22 03:43 25.32514 55.11894 2978 ft 215 kts 285°
2026-04-22 03:44 25.32935 55.10305 2977 ft 215 kts 285°
2026-04-22 03:44 25.33355 55.08719 2982 ft 214 kts 285°
2026-04-22 03:44 25.33623 55.07106 2971 ft 219 kts 264°
2026-04-22 03:44 25.33134 55.05533 2984 ft 218 kts 230°
2026-04-22 03:45 25.31975 55.04538 2978 ft 209 kts 195°
2026-04-22 03:45 25.30566 55.04454 2979 ft 203 kts 161°
2026-04-22 03:45 25.29414 55.05268 2981 ft 198 kts 127°
2026-04-22 03:45 25.28824 55.06633 2983 ft 199 kts 102°
2026-04-22 03:46 25.28588 55.08156 2989 ft 212 kts 103°
2026-04-22 03:46 25.28220 55.09903 2987 ft 255 kts 104°
2026-04-22 03:46 25.27743 55.11932 2985 ft 288 kts 105°
2026-04-22 03:46 25.27220 55.14123 2983 ft 299 kts 105°
2026-04-22 03:47 25.26691 55.16355 2984 ft 302 kts 105°
2026-04-22 03:47 25.26171 55.18567 2984 ft 300 kts 105°
2026-04-22 03:47 25.25642 55.20828 2983 ft 300 kts 105°
2026-04-22 03:47 25.25129 55.23031 2984 ft 300 kts 105°
2026-04-22 03:48 25.24582 55.25253 2980 ft 300 kts 109°
2026-04-22 03:48 25.23696 55.27332 2983 ft 299 kts 122°
2026-04-22 03:48 25.22424 55.29137 2983 ft 299 kts 133°
2026-04-22 03:48 25.21010 55.30826 2979 ft 300 kts 133°
2026-04-22 03:49 25.19608 55.32528 2978 ft 300 kts 133°
2026-04-22 03:49 25.18305 55.34337 2982 ft 303 kts 125°
2026-04-22 03:49 25.17204 55.36316 2982 ft 302 kts 122°
2026-04-22 03:49 25.16107 55.38281 2978 ft 300 kts 123°
2026-04-22 03:50 25.15005 55.40234 2978 ft 300 kts 123°
2026-04-22 03:50 25.13899 55.42188 2978 ft 300 kts 123°
2026-04-22 03:50 25.12792 55.44141 2978 ft 301 kts 123°
2026-04-22 03:50 25.11688 55.46090 2976 ft 295 kts 123°
2026-04-22 03:51 25.10640 55.47944 2978 ft 275 kts 123°
2026-04-22 03:51 25.09672 55.49679 2979 ft 257 kts 122°
2026-04-22 03:51 25.08768 55.51309 2976 ft 241 kts 123°
2026-04-22 03:51 25.07918 55.52843 2979 ft 227 kts 123°
2026-04-22 03:52 25.07114 55.54285 2975 ft 215 kts 123°
2026-04-22 03:52 25.06352 55.55648 2975 ft 203 kts 123°
2026-04-22 03:52 25.05627 55.56943 2977 ft 196 kts 123°
2026-04-22 03:52 25.05055 55.58294 2970 ft 201 kts 102°
2026-04-22 03:53 25.05245 55.59858 2984 ft 216 kts 68°
2026-04-22 03:53 25.06223 55.61139 2980 ft 224 kts 39°
2026-04-22 03:53 25.07543 55.62020 2973 ft 219 kts 32°
2026-04-22 03:53 25.08927 55.62701 2971 ft 216 kts 14°
2026-04-22 03:54 25.10344 55.62473 2986 ft 209 kts 332°
2026-04-22 03:54 25.11422 55.61454 2846 ft 201 kts 309°
2026-04-22 03:54 25.12227 55.60175 2472 ft 204 kts 301°
2026-04-22 03:54 25.12931 55.58852 2099 ft 202 kts 301°
2026-04-22 03:55 25.13656 55.57536 1985 ft 202 kts 302°
2026-04-22 03:55 25.14386 55.56214 1981 ft 201 kts 301°
2026-04-22 03:55 25.15113 55.54891 1981 ft 202 kts 302°
2026-04-22 03:55 25.15848 55.53560 1981 ft 203 kts 301°
2026-04-22 03:56 25.16581 55.52225 1983 ft 202 kts 302°
2026-04-22 03:56 25.17294 55.50931 1990 ft 192 kts 302°
2026-04-22 03:56 25.17976 55.49693 1981 ft 184 kts 302°
2026-04-22 03:56 25.18633 55.48500 1870 ft 177 kts 302°
2026-04-22 03:57 25.19243 55.47393 1637 ft 163 kts 303°
2026-04-22 03:57 25.19808 55.46368 1411 ft 152 kts 303°
2026-04-22 03:57 25.20344 55.45399 1231 ft 147 kts 304°
2026-04-22 03:57 25.20873 55.44437 1043 ft 148 kts 304°
2026-04-22 03:58 25.21395 55.43488 858 ft 141 kts 303°
2026-04-22 03:58 25.21913 55.42564 680 ft 140 kts 303°
2026-04-22 03:58 25.22410 55.41640 506 ft 138 kts 302°
2026-04-22 03:58 25.22911 55.40743 330 ft 140 kts 303°
2026-04-22 03:59 25.23418 55.39821 147 ft 140 kts 302°
2026-04-22 03:59 25.23903 55.38913 38 ft 129 kts 303°
2026-04-22 03:59 25.24292 55.38227 37 ft 86 kts 301°
2026-04-22 03:59 25.24555 55.37750 33 ft 62 kts 301°
2026-04-22 04:00 25.24748 55.37393 33 ft 41 kts 288°
2026-04-22 04:00 25.24785 55.37212 34 ft 21 kts 272°
2026-04-22 04:00 25.24773 55.37129 31 ft 8 kts 213°
2026-04-22 04:00 25.24725 55.37114 29 ft 6 kts 155°
2026-04-22 04:01 25.24690 55.37146 30 ft 6 kts 123°
2026-04-22 04:01 25.24665 55.37190 28 ft 7 kts 121°
2026-04-22 04:01 25.24638 55.37239 28 ft 10 kts 121°
2026-04-22 04:01 25.24592 55.37321 28 ft 15 kts 121°
2026-04-22 04:02 25.24529 55.37433 28 ft 19 kts 122°
2026-04-22 04:02 25.24464 55.37537 28 ft 6 kts 164°
2026-04-22 04:02 25.24427 55.37519 27 ft 4 kts 211°
2026-04-22 04:02 25.24397 55.37500 27 ft 3 kts 210°
2026-04-22 04:03 25.24356 55.37474 26 ft 6 kts 210°
2026-04-22 04:03 25.24322 55.37451 26 ft 5 kts 212°
2026-04-22 04:03 25.24307 55.37441 26 ft 0 kts 211°